This is the latest recevied weather packets stored in our database for station/object K4ZZR. If no packets are shown the sender has not sent any weather packets the latest 10 day(s).
| Time | Temp. | Humidity | Pressure | Rain* | Wind** | Luminosity | Snow |
|---|---|---|---|---|---|---|---|
| 1778013179 | 25.56° C | 82% | 1014.6 hPa | 0 mm | - | 219 W/m² | - |
| 1778012875 | 26.11° C | 81% | 1014.6 hPa | 0 mm | - | 625 W/m² | - |
| 1778012571 | 26.11° C | 80% | 1014.6 hPa | 0 mm | - | 722 W/m² | - |
| 1778012268 | 26.11° C | 82% | 1014.6 hPa | 0 mm | - | 250 W/m² | - |
| 1778011965 | 26.11° C | 81% | 1014.5 hPa | 0 mm | - | 639 W/m² | - |
| 1778011664 | 26.11° C | 80% | 1014.7 hPa | 0 mm | - | 587 W/m² | - |
| 1778011361 | 26.67° C | 80% | 1014.8 hPa | 0 mm | - | 710 W/m² | - |
| 1778011055 | 26.11° C | 82% | 1014.7 hPa | 0 mm | - | 658 W/m² | - |
| 1778010754 | 26.11° C | 82% | 1014.9 hPa | 0 mm | - | 230 W/m² | - |
| 1778010451 | 26.11° C | 82% | 1014.7 hPa | 0 mm | - | 249 W/m² | - |
| 1778010147 | 26.67° C | 81% | 1014.9 hPa | 0 mm | - | 914 W/m² | - |
| 1778009843 | 26.11° C | 82% | 1014.8 hPa | 0 mm | - | 474 W/m² | - |
| 1778009540 | 26.11° C | 82% | 1014.8 hPa | 0 mm | - | 596 W/m² | - |
| 1778009239 | 26.11° C | 81% | 1014.8 hPa | 0 mm | - | 905 W/m² | - |
| 1778008936 | 26.11° C | 81% | 1015 hPa | 0 mm | - | 841 W/m² | - |
| 1778008634 | 26.11° C | 82% | 1014.8 hPa | 0 mm | - | 891 W/m² | - |
| 1778008332 | 26.11° C | 81% | 1015.3 hPa | 0 mm | - | 327 W/m² | - |
| 1778008028 | 27.22° C | 80% | 1015 hPa | 0 mm | - | 919 W/m² | - |
| 1778007722 | 26.11° C | 82% | 1015.1 hPa | 0 mm | - | 915 W/m² | - |
| 1778007419 | 27.22° C | 80% | 1015.2 hPa | 0 mm | - | 905 W/m² | - |
| 1778007115 | 26.11° C | 82% | 1015.3 hPa | 0 mm | - | 971 W/m² | - |
| 1778006812 | 26.11° C | 80% | 1015.2 hPa | 0 mm | - | 887 W/m² | - |
| 1778006509 | 26.11° C | 81% | 1015.5 hPa | 0 mm | - | 492 W/m² | - |
| 1778006206 | 26.67° C | 80% | 1015.4 hPa | 0 mm | - | 866 W/m² | - |
| 1778005903 | 26.11° C | 81% | 1015.4 hPa | 0 mm | - | 909 W/m² | - |
* Rain latest hour (hover to see other rain measurements)
** Current wind speed in m/s (hover to see current wind gust speed)